Weather History for KP28 - May, 2013

Change the Weather History Date:

Monday, May 13, 2013

  Actual Average Record
Temperature  
Mean Temperature 66 °F 66 °F  
Max Temperature 86 °F 78 °F 94 °F (1913)
Min Temperature 46 °F 54 °F 31 °F (1966)
Degree Days  
Heating Degree Days 0 3  
Month to date heating degree days 109 48  
Since 1 July heating degree days 4514 4433  
Cooling Degree Days 1 4  
Month to date cooling degree days 4 32  
Year to date cooling degree days 25 56  
Growing Degree Days 16 (Base 50)    
Moisture  
Dew Point 50 °F    
Average Humidity 57    
Maximum Humidity 86    
Minimum Humidity 27    
Precipitation  
Precipitation 0.00 in 0.10 in 3.61 in (1935)
Month to date precipitation 1.06 1.26  
Year to date precipitation 8.81 7.70  
Snow  
Snow 0.00 in 0.00 in - ()
Month to date snowfall 0.0 0.0  
Since 1 July snowfall 25.0 8.5  
Snow Depth 0.00 in    
Sea Level Pressure  
Sea Level Pressure 30.00 in    
Wind  
Wind Speed 6 mph (SE)    
Max Wind Speed 14 mph    
Max Gust Speed 19 mph    
T = Trace of Precipitation, MM = Missing Value Source: NWS Daily Summary

Daily Weather History Graph

Daily Weather History Graph

Search for Another Location

Airport or City:

Trip Planner

Search our weather history database for the weather conditions in past years. The results will help you decide how hot, cold, wet, or windy it might be!

Date:

Astronomy

May. 13, 2013 Rise Set
Actual Time 6:26 AM CDT 8:34 PM CDT
Civil Twilight 5:57 AM CDT 9:03 PM CDT
Nautical Twilight 5:22 AM CDT 9:39 PM CDT
Astronomical Twilight 4:44 AM CDT 10:17 PM CDT
Moon 9:14 AM CDT (5/13) 11:44 PM CDT (5/13)
Length of Visible Light 15h 05m
Length of Day
14h 07m
Waxing Crescent, 12% of the Moon is Illuminated
May 13
Waxing Crescent
May 17
First Quarter
May 24
Full
May 31
Last Quarter
Jun 8
New

Hourly Weather History & Observations

Time (CDT) Temp. Heat Index Dew Point Humidity Pressure Visibility Wind Dir Wind Speed Gust Speed Precip Events Conditions
12:56 AM 55.0 °F - 46.0 °F 72% 30.05 in - ESE 8.1 mph - N/A   Unknown
1:56 AM 54.0 °F - 45.0 °F 72% 30.04 in - ESE 6.9 mph - N/A   Unknown
2:56 AM 52.0 °F - 45.0 °F 77% 30.02 in - East 10.4 mph - N/A   Unknown
3:56 AM 51.1 °F - 44.1 °F 77% 30.01 in - ESE 6.9 mph - N/A   Unknown
4:56 AM 50.0 °F - 44.1 °F 80% 30.00 in - ESE 4.6 mph - N/A   Unknown
5:56 AM 46.9 °F - 43.0 °F 86% 30.01 in - Calm Calm - N/A   Unknown
6:56 AM 46.0 °F - 43.0 °F 89% 30.03 in - Calm Calm - N/A   Unknown
7:56 AM 51.1 °F - 45.0 °F 80% 30.04 in - NNE 3.5 mph - N/A   Unknown
8:56 AM 59.0 °F - 46.0 °F 62% 30.05 in - North 3.5 mph - N/A   Unknown
9:56 AM 68.0 °F - 48.9 °F 50% 30.04 in - North 3.5 mph - N/A   Unknown
10:56 AM 73.9 °F - 51.1 °F 45% 30.04 in - Calm Calm - N/A   Unknown
11:56 AM 75.9 °F - 53.1 °F 45% 30.04 in - Variable 6.9 mph - N/A   Unknown
12:56 PM 79.0 °F - 55.0 °F 44% 30.03 in - South 9.2 mph - N/A   Unknown
1:56 PM 82.0 °F - 52.0 °F 35% 30.02 in - South 10.4 mph - N/A   Unknown
3:56 PM 84.9 °F - 50.0 °F 30% 29.99 in - SSE 8.1 mph 16.1 mph N/A   Unknown
4:56 PM 86.0 °F - 48.9 °F 28% 29.97 in - South 10.4 mph - N/A   Unknown
5:56 PM 84.9 °F 83.2 °F 53.1 °F 33% 29.96 in - SSE 9.2 mph - N/A   Unknown
6:56 PM 82.9 °F 82.1 °F 55.9 °F 39% 29.94 in - SSE 6.9 mph - N/A   Unknown
7:56 PM 80.1 °F 80.6 °F 57.9 °F 47% 29.93 in - ESE 6.9 mph - N/A   Unknown
8:56 PM 73.9 °F - 59.0 °F 59% 29.93 in - ESE 6.9 mph - N/A   Unknown
9:56 PM 72.0 °F - 59.0 °F 64% 29.93 in - ESE 6.9 mph - N/A   Unknown
10:56 PM 71.1 °F - 55.9 °F 59% 29.93 in - SSE 6.9 mph - N/A   Unknown
11:56 PM 66.9 °F - 54.0 °F 63% 29.93 in - SSE 5.8 mph - N/A   Unknown